1308963031423,0.000147238
1308963091423,0.000146613
1308963151423,0.000145388
1308963211423,0.000145492
1308963271423,0.000144527
1308966631433,0.000144740
1308966691433,0.000145171
1308966751433,0.000145478
1308966811433,0.000146685
1308966871433,0.000146527
1308970231443,0.000144091
1308970291443,0.000146161
1308970351443,0.000145207
1308970411443,0.000146539
1308970471443,0.000144384
1308973831452,0.000145820
1308973891452,0.000146076
1308973951452,0.000144618
1308974011452,0.000145560
1308974071452,0.000145068
1308977431461,0.000146630
1308977491461,0.000145416
1308977551461,0.000145484
1308977611461,0.000145774
1308977671461,0.000145209
1308981031471,0.000146568
1308981091471,0.000145238
1308981151471,0.000146583
1308981211471,0.000147100
1308981271471,0.000145456
1308984631480,0.000145745
1308984691480,0.000143808
1308984751480,0.000144679
1308984811480,0.000144012
1308984871480,0.000143740
1308988231489,0.000145916
1308988291489,0.000143967
1308988351489,0.000146778
1308988411489,0.000145447
1308988471489,0.000146134
1308988531489,0.000146736
1308988591489,0.000145212
1308988651489,0.000146313
1308988711489,0.000146957
1308988771489,0.000145787
1308988831498,0.000146146
1308988891498,0.000145053
1308988951498,0.000145892
1308989011498,0.000144914
1308989071498,0.000145448
1308989131498,0.000144649
1308989191498,0.000145350
1308989251498,0.000146441
1308989311498,0.000144243
1308989371498,0.000144388
1308989431498,0.000146102
1308989491498,0.000144701
1308989551498,0.000144410
1308989611498,0.000144959
1308989671498,0.000144151
1308989731498,0.000143894
1308989791498,0.000145050
1308989851498,0.000144040
1308989911498,0.000146455
1308989971498,0.000143443
1308990031498,0.000144781
1308990091498,0.000145191
1308990151498,0.000145009
1308990211498,0.000145811
1308990271498,0.000145012
1308990331498,0.000148484
1308990391498,0.000144333
1308990451498,0.000143806
1308990511498,0.000144842
1308990571498,0.000144482
1308990631498,0.000145205
1308990691498,0.000146692
1308990751498,0.000143536
1308990811498,0.000145134
1308990871498,0.000144300
1308990931498,0.000144135
1308990991498,0.000143959
1308991051498,0.000143806
1308991111498,0.000145174
1308991171498,0.000143426
1308991231498,0.000145946
1308991291498,0.000146259
1308991351498,0.000145333
1308991411498,0.000143994
1308991471498,0.000144497
1308991531498,0.000145750
1308991591498,0.000145153
1308991651498,0.000145568
1308991711498,0.000144600
1308991771498,0.000145262
1308991831498,0.000144502
1308991891498,0.000144545
1308991951498,0.000144695
1308992011498,0.000144863
1308992071498,0.000143870
1308992131498,0.000144247
1308992191498,0.000144197
1308992251498,0.000143929
1308992311498,0.000143895
1308992371498,0.000144984
1308992431507,0.000145201
1308992491507,0.000145363
1308992551507,0.000144661
1308992611507,0.000144380
1308992671507,0.000144062
1308992731507,0.000144053
1308992791507,0.000143689
1308992851507,0.000145294
1308992911507,0.000144310
1308992971507,0.000143279
1308993031507,0.000144628
1308993091507,0.000144502
1308993151507,0.000144497
1308993211507,0.000144207
1308993271507,0.000144482
1308993331507,0.000144525
1308993391507,0.000143958
1308993451507,0.000142670
1308993511507,0.000144001
1308993571507,0.000143319
1308993631507,0.000144482
1308993691507,0.000143999
1308993751507,0.000142250
1308993811507,0.000144007
1308993871507,0.000144260
1308993931507,0.000143409
1308993991507,0.000143863
1308994051507,0.000144431
1308994111507,0.000142717
1308994171507,0.000144045
1308994231507,0.000144420
1308994291507,0.000144010
1308994351507,0.000144393
1308994411507,0.000144639
1308994471507,0.000143866
1308994531507,0.000144267
1308994591507,0.000143406
1308994651507,0.000143721
1308994711507,0.000144393
1308994771507,0.000145249
1308994831507,0.000144037
1308994891507,0.000143685
1308994951507,0.000143728
1308995011507,0.000143661
1308995071507,0.000144411
1308995131507,0.000144169
1308995191507,0.000143841
1308995251507,0.000142523
1308995311507,0.000142522
1308995371507,0.000143236
1308995431507,0.000142695
1308995491507,0.000144485
1308995551507,0.000141677
1308995611507,0.000144507
1308995671507,0.000142900
1308995731507,0.000144602
1308995791507,0.000143674
1308995851507,0.000142860
1308995911507,0.000143550
1308995971507,0.000142533
1308996031516,0.000143239
1308996091516,0.000143527
1308996151516,0.000143037
1308996211516,0.000143034
1308996271516,0.000142857
1308996331516,0.000143518
1308996391516,0.000142752
1308996451516,0.000143095
1308996511516,0.000142358
1308996571516,0.000143024
1308996631516,0.000143670
1308996691516,0.000143470
1308996751516,0.000143521
1308996811516,0.000143168
1308996871516,0.000143649
1308996931516,0.000143960
1308996991516,0.000145848
1308997051516,0.000145712
1308997111516,0.000144592
1308997171516,0.000144823
1308997231516,0.000144570
1308997291516,0.000143951
1308997351516,0.000145441
1308997411516,0.000145179
1308997471516,0.000143412
1308997531516,0.000144906
1308997591516,0.000143833
1308997651516,0.000144146
1308997711516,0.000144081
1308997771516,0.000142555
1308997831516,0.000143583
1308997891516,0.000144155
1308997951516,0.000142126
1308998011516,0.000142451
1308998071516,0.000143017
1308998131516,0.000143764
1308998191516,0.000143943
1308998251516,0.000143114
1308998311516,0.000142823
1308998371516,0.000142642
1308998431516,0.000143266
1308998491516,0.000144611
1308998551516,0.000143782
1308998611516,0.000142940
1308998671516,0.000143304
1308998731516,0.000142114
1308998791516,0.000143587
1308998851516,0.000143700
1308998911516,0.000144125
1308998971516,0.000143405
1308999031516,0.000144763
1308999091516,0.000144518
1308999151516,0.000144455
1308999211516,0.000145058
1308999271516,0.000143034
1309002631525,0.000145031
1309002691525,0.000143822
1309002751525,0.000144246
1309002811525,0.000144094
1309002871525,0.000144232
1309006231533,0.000145610
1309006291534,0.000144966
1309006351534,0.000146123
1309006411534,0.000143952
1309006471534,0.000145351
1309009831542,0.000146377
1309009891542,0.000145745
1309009951542,0.000146631
1309010011542,0.000145045
1309010071542,0.000143668
1309013431551,0.000147010
1309013491551,0.000145778
1309013551551,0.000145871
1309013611551,0.000145690
1309013671552,0.000147241
1309017031561,0.000146019
1309017091561,0.000145570
1309017151561,0.000144832
1309017211561,0.000144398
1309017271561,0.000143045
1309020631570,0.000145221
1309020691570,0.000143345
1309020751570,0.000145071
1309020811570,0.000144316
1309020871570,0.000144379
1309024231580,0.000146536
1309024291580,0.000146868
1309024351580,0.000147080
1309024411580,0.000146680
1309024471580,0.000145359
1309027831590,0.000146620
1309027891590,0.000146270
1309027951590,0.000146746
1309028011590,0.000147757
1309028071590,0.000147502
1309031431600,0.000146980
1309031491600,0.000148533
1309031551600,0.000146610
1309031611600,0.000147708
1309031671600,0.000147429
1309035031611,0.000149201
1309035091611,0.000147817
1309035151611,0.000148079
1309035211611,0.000148437
1309035271611,0.000147632
1309038631622,0.000146864
1309038691622,0.000148006
1309038751622,0.000148764
1309038811622,0.000147724
1309038871622,0.000147478
1309042231633,0.000146862
1309042291633,0.000146443
1309042351633,0.000147261
1309042411633,0.000147376
1309042471633,0.000147318
1309045831643,0.000146776
1309045891643,0.000147167
1309045951643,0.000146440
1309046011643,0.000145347
1309046071643,0.000144007
